When you browse on this site, cookies collect data to enhance your experience and personalize the content and advertising you see.
Visit our Privacy Policy to learn more. By continuing to use the site, you agree to this use of cookies and data.
  • In United Kingdom
  • List of Countries
  • For 7 days
  • Water Temperature
  • Weather Map
  • Weather Widgets
  • user-avatar
    Login

    Hourly Weather Aberlady

    Today, 19 October, Saturday

    Time Temperature Precipitation Wind Pressure Humidity
    00:00 +9°C° 0.2 mm 1 mps 741 mmHg 95%
    01:00 +8°C° 0.2 mm 2 mps 741 mmHg 95%
    02:00 +8°C° 0.2 mm 2 mps 741 mmHg 95%
    03:00 +8°C° 0.2 mm 3 mps 741 mmHg 95%
    04:00 +8°C° 1.1 mm 3 mps 742 mmHg 95%
    05:00 +7°C° 1.1 mm 4 mps 742 mmHg 95%
    06:00 +8°C° 1.1 mm 4 mps 742 mmHg 95%
    07:00 +8°C° 2.2 mm 6 mps 743 mmHg 93%
    08:00 +7°C° 2.2 mm 8 mps 743 mmHg 92%
    09:00 +7°C° 2.2 mm 10 mps 743 mmHg 90%
    10:00 +7°C° 1.3 mm 10 mps 744 mmHg 89%
    11:00 +7°C° 1.3 mm 9 mps 744 mmHg 88%
    12:00 +7°C° 1.3 mm 9 mps 744 mmHg 87%
    13:00 +7°C° 0.8 mm 9 mps 745 mmHg 86%
    14:00 +7°C° 0.8 mm 8 mps 745 mmHg 85%
    15:00 +8°C° 0.8 mm 7 mps 745 mmHg 83%
    16:00 +8°C° 0.2 mm 7 mps 746 mmHg 84%
    17:00 +8°C° 0.2 mm 7 mps 746 mmHg 85%
    18:00 +7°C° 0.2 mm 6 mps 747 mmHg 86%
    19:00 +7°C° 0.2 mm 6 mps 747 mmHg 86%
    20:00 +7°C° 0.2 mm 6 mps 748 mmHg 87%
    21:00 +7°C° 0.2 mm 6 mps 749 mmHg 88%
    22:00 +6°C° 0.1 mm 5 mps 749 mmHg 88%
    23:00 +6°C° 0.1 mm 5 mps 750 mmHg 88%

    Tomorrow, 20 October, Sunday

    Time Temperature Precipitation Wind Pressure Humidity
    00:00 +5°C° 0.1 mm 5 mps 751 mmHg 89%
    01:00 +6°C° 0.1 mm 5 mps 751 mmHg 88%
    02:00 +6°C° 0.1 mm 5 mps 752 mmHg 88%
    03:00 +6°C° 0.1 mm 5 mps 752 mmHg 88%
    04:00 +6°C° 0 mm 5 mps 753 mmHg 87%
    05:00 +5°C° 0 mm 5 mps 753 mmHg 87%
    06:00 +3°C° 0 mm 5 mps 754 mmHg 86%
    07:00 +5°C° 0 mm 5 mps 754 mmHg 84%
    08:00 +5°C° 0 mm 5 mps 755 mmHg 82%
    09:00 +5°C° 0 mm 6 mps 755 mmHg 79%
    10:00 +5°C° 0 mm 6 mps 756 mmHg 76%
    11:00 +7°C° 0 mm 6 mps 756 mmHg 73%
    12:00 +8°C° 0 mm 6 mps 757 mmHg 70%
    13:00 +8°C° 0 mm 6 mps 757 mmHg 71%
    14:00 +7°C° 0 mm 6 mps 757 mmHg 73%
    15:00 +7°C° 0 mm 6 mps 757 mmHg 74%
    16:00 +7°C° 0 mm 6 mps 757 mmHg 75%
    17:00 +5°C° 0 mm 6 mps 758 mmHg 77%
    18:00 +5°C° 0 mm 6 mps 758 mmHg 78%
    19:00 +4°C° 0 mm 6 mps 759 mmHg 79%
    20:00 +4°C° 0 mm 6 mps 759 mmHg 80%
    21:00 +4°C° 0 mm 6 mps 760 mmHg 80%
    22:00 +3°C° 0 mm 6 mps 760 mmHg 81%
    23:00 +3°C° 0 mm 5 mps 760 mmHg 82%

    Day after tomorrow, 21 October, Monday

    Time Temperature Precipitation Wind Pressure Humidity
    00:00 +3°C° 0 mm 5 mps 761 mmHg 83%
    01:00 +4°C° 0 mm 4 mps 761 mmHg 83%
    02:00 +3°C° 0 mm 4 mps 761 mmHg 83%
    03:00 +3°C° 0 mm 4 mps 761 mmHg 83%
    04:00 +3°C° 0 mm 3 mps 761 mmHg 84%
    05:00 +2°C° 0 mm 3 mps 761 mmHg 85%
    06:00 +2°C° 0 mm 3 mps 762 mmHg 86%
    07:00 +4°C° 0 mm 2 mps 762 mmHg 83%
    08:00 +4°C° 0 mm 2 mps 762 mmHg 80%
    09:00 +5°C° 0 mm 2 mps 762 mmHg 78%
    10:00 +7°C° 0 mm 1 mps 762 mmHg 74%
    11:00 +8°C° 0 mm 1 mps 762 mmHg 71%
    12:00 +9°C° 0 mm 1 mps 762 mmHg 68%
    13:00 +9°C° 0 mm 1 mps 762 mmHg 68%
    14:00 +9°C° 0 mm 1 mps 761 mmHg 67%
    15:00 +9°C° 0 mm 1 mps 761 mmHg 67%
    16:00 +8°C° 0 mm 1 mps 761 mmHg 73%
    17:00 +7°C° 0 mm 1 mps 761 mmHg 78%
    18:00 +5°C° 0 mm 1 mps 761 mmHg 84%
    19:00 +4°C° 0 mm 2 mps 761 mmHg 85%
    20:00 +3°C° 0 mm 3 mps 761 mmHg 87%
    21:00 +1°C° 0 mm 4 mps 760 mmHg 89%
    22:00 +3°C° 0 mm 4 mps 760 mmHg 88%
    23:00 +3°C° 0 mm 4 mps 760 mmHg 87%

    22 October, Tuesday

    Time Temperature Precipitation Wind Pressure Humidity
    00:00 +2°C° 0 mm 5 mps 759 mmHg 86%
    01:00 +2°C° 0 mm 5 mps 759 mmHg 85%
    02:00 +3°C° 0 mm 5 mps 759 mmHg 84%
    03:00 +3°C° 0 mm 6 mps 758 mmHg 84%
    04:00 +3°C° 0 mm 6 mps 758 mmHg 84%
    05:00 +3°C° 0 mm 6 mps 758 mmHg 84%
    06:00 +3°C° 0 mm 6 mps 758 mmHg 85%
    07:00 +4°C° 0 mm 7 mps 758 mmHg 83%
    08:00 +4°C° 0 mm 7 mps 757 mmHg 82%
    09:00 +5°C° 0 mm 7 mps 757 mmHg 80%
    10:00 +5°C° 0 mm 8 mps 757 mmHg 79%
    11:00 +6°C° 0 mm 8 mps 757 mmHg 78%
    12:00 +6°C° 0 mm 8 mps 757 mmHg 77%
    13:00 +6°C° 0 mm 8 mps 756 mmHg 77%
    14:00 +7°C° 0 mm 8 mps 756 mmHg 77%
    15:00 +7°C° 0 mm 8 mps 756 mmHg 77%
    16:00 +6°C° 0 mm 7 mps 755 mmHg 79%
    17:00 +6°C° 0 mm 7 mps 755 mmHg 80%
    18:00 +6°C° 0 mm 7 mps 755 mmHg 82%
    19:00 +6°C° 0 mm 7 mps 755 mmHg 82%
    20:00 +6°C° 0 mm 7 mps 755 mmHg 81%
    21:00 +6°C° 0 mm 7 mps 755 mmHg 81%
    22:00 +6°C° 0 mm 7 mps 754 mmHg 81%
    23:00 +5°C° 0 mm 6 mps 754 mmHg 81%

    23 October, Wednesday

    Time Temperature Precipitation Wind Pressure Humidity
    00:00 +5°C° 0 mm 6 mps 754 mmHg 81%
    01:00 +5°C° 0 mm 6 mps 753 mmHg 81%
    02:00 +5°C° 0 mm 6 mps 753 mmHg 82%
    03:00 +5°C° 0 mm 6 mps 752 mmHg 83%
    04:00 +5°C° 0 mm 6 mps 752 mmHg 82%
    05:00 +7°C° 0 mm 6 mps 751 mmHg 81%
    06:00 +6°C° 0 mm 7 mps 751 mmHg 79%
    07:00 +8°C° 0 mm 7 mps 751 mmHg 79%
    08:00 +8°C° 0 mm 7 mps 750 mmHg 79%
    09:00 +9°C° 0 mm 6 mps 750 mmHg 79%
    10:00 +9°C° 0 mm 7 mps 749 mmHg 78%
    11:00 +9°C° 0 mm 7 mps 749 mmHg 78%
    12:00 +9°C° 0 mm 7 mps 748 mmHg 78%
    13:00 +10°C° 0 mm 7 mps 748 mmHg 79%
    14:00 +10°C° 0 mm 7 mps 747 mmHg 80%
    15:00 +10°C° 0 mm 7 mps 746 mmHg 81%
    16:00 +10°C° 0.3 mm 7 mps 746 mmHg 83%
    17:00 +10°C° 0.3 mm 7 mps 745 mmHg 86%
    18:00 +9°C° 0.3 mm 7 mps 745 mmHg 88%
    19:00 +9°C° 0.2 mm 6 mps 744 mmHg 89%
    20:00 +9°C° 0.2 mm 6 mps 744 mmHg 90%
    21:00 +10°C° 0.2 mm 5 mps 744 mmHg 91%
    22:00 +9°C° 0.2 mm 5 mps 744 mmHg 91%
    23:00 +9°C° 0.2 mm 5 mps 744 mmHg 91%

    24 October, Thursday

    Time Temperature Precipitation Wind Pressure Humidity
    00:00 +9°C° 0.2 mm 5 mps 743 mmHg 91%
    01:00 +8°C° 0 mm 5 mps 743 mmHg 91%
    02:00 +8°C° 0 mm 5 mps 743 mmHg 91%
    03:00 +8°C° 0 mm 5 mps 743 mmHg 91%
    04:00 +8°C° 0 mm 6 mps 743 mmHg 90%
    05:00 +7°C° 0 mm 6 mps 743 mmHg 90%
    06:00 +7°C° 0 mm 6 mps 743 mmHg 90%
    07:00 +7°C° 0 mm 6 mps 743 mmHg 88%
    08:00 +8°C° 0 mm 6 mps 743 mmHg 87%
    09:00 +8°C° 0 mm 6 mps 743 mmHg 85%
    10:00 +9°C° 0.1 mm 7 mps 743 mmHg 82%
    11:00 +9°C° 0.1 mm 7 mps 743 mmHg 78%
    12:00 +10°C° 0.1 mm 8 mps 743 mmHg 75%
    13:00 +9°C° 0.1 mm 8 mps 743 mmHg 74%
    14:00 +9°C° 0.1 mm 8 mps 743 mmHg 73%
    15:00 +7°C° 0.1 mm 8 mps 743 mmHg 72%
    16:00 +7°C° 0 mm 8 mps 744 mmHg 77%
    17:00 +6°C° 0 mm 7 mps 745 mmHg 81%
    18:00 +5°C° 0 mm 7 mps 745 mmHg 86%
    19:00 +5°C° 0 mm 6 mps 746 mmHg 87%
    20:00 +5°C° 0 mm 5 mps 747 mmHg 89%
    21:00 +5°C° 0 mm 4 mps 747 mmHg 90%
    22:00 +5°C° 0 mm 3 mps 748 mmHg 90%
    23:00 +5°C° 0 mm 3 mps 749 mmHg 91%
    Show more